Location: South Range
(44.4886°N, 65.7879°W)
Time: 23:22:23
(UTC-03:00)

Iridium 56 - Visible Passes

Search period start: 01 October 2014 00:00
Search period end: 11 October 2014 00:00
Orbit: 776 x 779 km, 86.4° (Epoch: 30 September)

Date Brightness Start Highest point End Pass type
(mag) Time Alt. Az. Time Alt. Az. Time Alt. Az.
01 Oct 8.0 03:16:04 18° NNE 03:16:04 18° NNE 03:17:28 10° NNE visible
01 Oct 7.5 04:56:34 16° NNW 04:56:34 16° NNW 04:57:54 10° NNW visible
02 Oct 8.5 02:42:55 12° NE 02:42:55 12° NE 02:43:17 10° NNE visible
02 Oct 7.6 04:23:25 18° NNW 04:23:25 18° NNW 04:24:48 10° N visible
03 Oct 7.8 03:50:15 17° N 03:50:15 17° N 03:51:23 10° N visible
04 Oct 8.2 03:17:04 14° NNE 03:17:04 14° NNE 03:17:44 10° NNE visible
05 Oct 8.0 04:24:21 11° NNW 04:24:21 11° NNW 04:24:39 10° NNW visible
06 Oct 8.2 03:51:08 12° N 03:51:08 12° N 03:51:25 10° N visible
